map of KSIF home
Great Circle Mapper logo
KSIF - Airport
Location
City:  Reidsville, North Carolina, United States
Name:Rockingham County NC Shiloh Airport
ICAO:KSIF
FAA LID:SIF

Details
Type:Airport (Airfield)
Use:Public/Civil
Latitude:3626'14"N (36.437222)
Longitude:7951'04"W (-79.850999)
Datum:WGS 1984
Elevation:693 ft (211 m)
Variation:8.54W (WMM2015 magnetic declination)
-0.04 annual change
Runways:1
Longest:5200 × 100 ft (1585 × 30.5 m), paved

Time
Time Zone:UTC-5 (DST-4)
Local Time:

Weather
METAR:KSIF 301950Z AUTO 00000KT 10SM SCT034 28/19 A2995 RMK AO2 T02840193

Related Locations
Nearby:
Farthest:MQZ: 11580 mi / 18637 km
Margaret River [Margaret River Airport], WA, AU

Find:

   beyond  
but within

Other Information
Maps:
NOTAMs:
Links:
Sources:

  
flag of United States
flag of North Carolina
  

Sectional Chart

Flight Planning
at skyvector.com

Satellite Image

Google Maps Satellite view

 

Copyright © 2004-2016 Karl L. Swartz. All rights reserved.
The Great Circle Mapper name and logo are trademarks of the Great Circle Mapper.
All other trademarks mentioned herein belong to their respective owners.
Please see credits for attibutions and further copyright information.

  Follow gcmap on Facebook Follow gcmap on Twitter Follow gcmap on Google+ GCmap on LinkedIn

hCard Microformat

Geo Microformat